Flag for U.S.A. Weather past 2 weeks in Salt Lake City, Utah, U.S.A.

Now
41 °F

Clear.


Feels Like: 37 °F
Forecast: 42 / 63 °F
Wind: 6 mph from Southeast

Location: Salt Lake City International Airport

Current Time: Oct 22, 2014 at 6:57:34 AM

Latest Report: Oct 22, 2014 at 5:53 AM


Visibility: 10 mi

Pressure: 30.09 "Hg

Humidity: 76%

Dew point: 34 °F

Location of Salt Lake CityLocation

Historic Weather in Salt Lake City — Graph

°F

Salt Lake City temperature yesterday

Maximum temperature yesterday: 69 °F (at 9:53 AM)
Minimum temperature yesterday: 46 °F (at 11:53 PM)
Average temperature yesterday: 60 °F

Past Weeks' High & Low Weather Summary

 TemperatureHumidityPressure
High79 °F (Oct 8, 3:53 PM)80% (Oct 18, 2:53 AM)30.27 "Hg (Oct 18, 2:53 AM)
Low41 °F (Oct 13, 7:53 AM)10% (Oct 15, 4:53 PM)29.68 "Hg (Oct 15, 4:53 PM)
Average59 °F48%29.96 "Hg
* Reported Oct 7 7:53 AM — Oct 22 5:53 AM, Salt Lake City, Weather by CustomWeather, © 2014

Note: Actual official high and low records may vary slightly from our data, if they occured in-between our weather recording intervals... More about our weather records

Advertising

Salt Lake City weather history for previous 24 hours

 ConditionsComfort  
Time TempWeatherWind HumidityBarometerVisibility
5:53 AM
Oct 22
41 °FClear.6 mph76%30.09 "Hg10 mi
4:53 AM41 °FClear.5 mph76%30.08 "Hg10 mi
3:53 AM41 °FClear.No wind76%30.06 "Hg10 mi
2:53 AM43 °FPassing clouds.3 mph74%30.04 "Hg10 mi
1:53 AM42 °FClear.3 mph76%30.04 "Hg10 mi
12:53 AM44 °FPassing clouds.5 mph73%30.03 "Hg10 mi
11:53 PM
Oct 21
46 °FPassing clouds.5 mph68%30.01 "Hg10 mi
10:53 PM49 °FPassing clouds.8 mph61%29.99 "Hg10 mi
9:53 PM49 °FPassing clouds.13 mph57%29.97 "Hg10 mi
8:53 PM52 °FPartly cloudy.3 mph49%29.96 "Hg10 mi
7:53 PM56 °FPartly cloudy.3 mph36%29.94 "Hg10 mi
6:53 PM58 °FBroken clouds.8 mph25%29.92 "Hg10 mi
5:53 PM59 °FBroken clouds.8 mph26%29.91 "Hg10 mi
4:53 PM60 °FBroken clouds.14 mph26%29.90 "Hg10 mi
3:53 PM60 °FBroken clouds.13 mph36%29.90 "Hg10 mi
2:53 PM62 °FBroken clouds.14 mph39%29.89 "Hg10 mi
1:53 PM61 °FBroken clouds.20 mph42%29.89 "Hg10 mi
12:53 PM61 °FPartly sunny.23 mph39%29.90 "Hg10 mi
11:53 AM61 °FPartly sunny.17 mph48%29.88 "Hg10 mi
10:53 AM62 °FScattered clouds.20 mph41%29.85 "Hg10 mi
9:53 AM69 °FScattered clouds.18 mph35%29.78 "Hg10 mi
8:53 AM65 °FScattered clouds.15 mph39%29.78 "Hg10 mi
7:53 AM61 °FPassing clouds.13 mph46%29.77 "Hg10 mi
6:53 AM64 °FPassing clouds.15 mph40%29.75 "Hg10 mi
Weather by CustomWeather, © 2014

See weather overviewHow to use our weather pages